Showing default

COSMOS 2433 (GLONASS), 32275

Orbit data source: Space-Track

COSMOS 2433 (GLONASS), 32275 is a Commonwealth of Independent States-origin payload satellite in MEO that was launched on Fri, 26 Oct 2007 UTC via a PROTON-K/DM-2 launch vehicle from the Tyuratam Missile And Space Complex (TTMTR). Payload-class satellites include a variety of spacecraft equipped with specific instruments for various scientific and technological missions. These include communications satellites like Starlink; space stations such as the ISS; scientific satellites like the Hubble; Earth observation satellites from companies like Planet Labs, Umbra, and HawkEye 360; GPS; miniature CubeSats for education and research; and military/defense satellites.

Loading next visibility...
Identifier
32275, 2007-052A
Orbit
MEO
Country
Flag of CISCIS
Related business
Manufacturer
Resehetnev ISS
Mission
On reserve Defense Navigation
Bus & Motor
URAGAN, Unknown motor
Mass
1,450 kg wet, ~1,200 kg dry
Launch date (UTC)
2007-10-26 (19 years ago)
Launch vehicle
PROTON-K/DM-2
Launch site
Tyuratam Missile And Space Complex (TTMTR)
Object type
Payload
Rocket body
Debris
Shape & HBR
Cyl + 1 Ant + 2 Pan, 3.9 m
Radar Cross Section
8.467 m², Large (>1 m²)

Expand to show TLE details & history
Last TLE update: 4 days ago

TLE from 4 days ago
0 COSMOS 2433 (GLONASS)
1 32275U 07052A   26122.86692718 -.00000048  00000-0  00000-0 0  9996
2 32275  65.6022 317.4582 0001011 193.7330 166.2816  2.13104166144093
Epoch: 2026-05-02T20:48Z
TLE epoch observation values (Epoch: 2026-05-02T20:48:22.508Z)
Latitude
-0.00008°
Longitude
144.59125°
Altitude
19,132.79 km
Speed
3.953 km/s
True Right ascension
21h 09m 51s
True Declination
0° 00' 00"
Sunlit
Object was in daylight at epoch
Visualization orbit readout
Latitude
Unknown
Longitude
Unknown
Altitude
Unknown
Speed
Unknown
Apparent Right ascension
Unknown
Apparent Declination
Unknown
Sunlit
N/A
Visualization observer readout
Local Sidereal Time
00:12:02
Azimuth
Unknown
Elevation
Unknown
Doppler factor
Unknown
Orbital elements
Apogee altitude
19,131.888 km
Perigee altitude
19,126.73 km
Semi-major axis
25,507.446 km
Eccentricity
0.0001
Inclination
65.6022°
RAAN
317.4582°
Arg. of periapsis
193.733°
True anomaly
166.28435°
Mean anomaly
166.2816°
Eccentric anomaly
166.28297°
Mean motion
0.53277 °/min
Orbital period
675.71 mins
BSTAR
0
Loading maneuver chart data...
Computing Atmospheric mass density...
Loading historical data...
Loading historical data...
Loading historical data...
Loading historical data...
Loading historical data...
Loading historical data...
Loading historical data...

Documentation

Showing up to 5 results
|